User: anonymous   Login
Location: Robert Brownlee Observatory
(34.2308°N, 117.2089°W)
Time: 08:11:04
(UTC-07:00)
Language:

Cosmos 1943 - Orbit

View from above orbital plane
View from above orbital plane
View from above satellite
View from above satellite

Ground track
Ground track

The orbit data is extracted from the following two-line orbital elements,

1 19119U 88039A   15107.51292142  .00000294  00000-0  17652-3 0  9998
2 19119 071.0035 324.2031 0012012 191.2781 219.8474 14.15005212390108
Epoch (UTC): 17 April 2015 12:18:36
Eccentricity: 0.0012012
inclination: 71.0035°
perigee height: 833 km
apogee height: 851 km
right ascension of ascending node: 324.2031°
argument of perigee: 191.2781°
revolutions per day: 14.15005212
mean anomaly at epoch: 219.8474°
orbit number at epoch: 39010

The dashed part of the orbit path shows where the satellite is in the earth's shadow,  

DLR